Вернуться в каталог

FENGYUN 1C DEB

АктивенSSO
NORAD 31633·DEBRIS·🇨🇳 China

Запущен May 10, 1999 с Taiyuan Satellite Launch Center

Loading…

Ближайшие Пролёты (ближайшие 24 часа)

TLE

УстаревающийSource: Space-Track

Эпоха: Sep 9, 2026, 05:53 UTC

1 31633U 99025CAP 26252.24580031  .00000886  00000-0  54431-3 0  9993
2 31633  98.7074 261.4827 0066864 130.2357 230.4688 14.07001732608879

Отслеживайте FENGYUN 1C DEB в реальном времени с AllMySat

Download on the App Store